Location: S�o Paulo
(23.5330°S, 46.6170°W)
Time: 08:36:46
(UTC-03:00)

ISS - Visible Passes

Search period start: 22 September 2017 00:00
Search period end: 02 October 2017 00:00
Orbit: 401 x 407 km, 51.6° (Epoch: 22 September)

Date Brightness Start Highest point End Pass type
(mag) Time Alt. Az. Time Alt. Az. Time Alt. Az.
26 Sep -1.3 05:16:10 10° N 05:18:46 22° NE 05:21:24 10° ESE visible
28 Sep -3.7 05:07:04 10° NW 05:10:21 81° NE 05:13:39 10° SE visible
29 Sep -2.2 04:17:17 26° NNE 04:18:03 29° NE 04:21:00 10° ESE visible
30 Sep -2.7 05:00:24 19° W 05:02:01 28° SW 05:04:58 10° SSE visible
01 Oct -2.7 04:10:38 40° SSE 04:10:38 40° SSE 04:12:54 10° SE visible
